User: anonymous   Login
Location: La Pernelle
(49.6188°N, 1.2999°W)
Time: 13:29:53
(UTC+00:00)
Language:

Cosmos 1110 Rocket - Orbit

View from above orbital plane
View from above orbital plane
View from above satellite
View from above satellite

Ground track
Ground track

The orbit data is extracted from the following two-line orbital elements,

1 11427U 79060B   21262.84924495 -.00000022  00000-0  13342-5 0  9998
2 11427  74.0181  41.3944 0019813 171.3947 188.7551 14.37470547211154
Epoch (UTC): 19 September 2021 20:22:54
Eccentricity: 0.0019813
inclination: 74.0181°
perigee height: 753 km
apogee height: 781 km
right ascension of ascending node: 41.3944°
argument of perigee: 171.3947°
revolutions per day: 14.37470547
mean anomaly at epoch: 188.7551°
orbit number at epoch: 21115

The dashed part of the orbit path shows where the satellite is in the earth's shadow,  

DLR